Location: Unspecified
(35.6961°N, 0.0000°E)
Time: 23:53:50
(UTC+00:00)

Vanguard 2 Rocket - Pass Details

Date: 29 May 2019
Orbit: 555 x 3326 km, 32.9° (Epoch: 26 June)

Event Time Altitude Azimuth Distance (km) Brightness Sun altitude
Rises 05:48:55 0° 259° (W) 7,312 10.9 10.8°
Reaches altitude 10° 05:53:57 10° 258° (WSW) 6,255 10.6 11.7°
Maximum altitude 06:13:36 80° 176° (S) 2,662 9.5 15.5°
Drops below altitude 10° 06:25:59 10° 92° (E) 4,186 12.1 18.0°
Sets 06:28:39 0° 91° (E) 4,879 12.1 18.5°
